| time (UTC) | temp C | wind direction | speed KPH | gust KPH | rain 1hr cm | rain 24hr cm | rain mn cm | humidity % | barometer mb |
| 20260505184507 | 10 | 252 | 4.8 | 4.8 | 0.00 | 0.00 | 0.00 | 40 | 1011.1 |
| 20260505184003 | 10 | 334 | 4.8 | 8.0 | 0.00 | 0.00 | 0.00 | 39 | 1011.1 |
| 20260505183500 | 10 | 137 | 6.4 | 8.0 | 0.00 | 0.00 | 0.00 | 39 | 1011.0 |
| 20260505182956 | 10 | 199 | 3.2 | 4.8 | 0.00 | 0.00 | 0.00 | 39 | 1011.0 |
| 20260505182454 | 10 | 146 | 0.0 | 3.2 | 0.00 | 0.00 | 0.00 | 39 | 1011.0 |
| 20260505181950 | 10 | 299 | 3.2 | 4.8 | 0.00 | 0.00 | 0.00 | 40 | 1011.1 |
| 20260505181447 | 10 | 137 | 3.2 | 4.8 | 0.00 | 0.00 | 0.00 | 39 | 1011.1 |
| 20260505180944 | 10 | 114 | 9.7 | 14.5 | 0.00 | 0.00 | 0.00 | 38 | 1011.1 |
| 20260505180440 | 10 | 10 | 12.9 | 16.1 | 0.00 | 0.00 | 0.00 | 38 | 1011.0 |
| 20260505175937 | 10 | 188 | 3.2 | 3.2 | 0.00 | 0.00 | 0.00 | 38 | 1011.2 |
| 20260505175433 | 10 | 1 | 4.8 | 8.0 | 0.00 | 0.00 | 0.00 | 38 | 1011.2 |
| 20260505174930 | 10 | 333 | 11.3 | 14.5 | 0.00 | 0.00 | 0.00 | 36 | 1011.2 |
| 20260505174427 | 10 | 359 | 4.8 | 4.8 | 0.00 | 0.00 | 0.00 | 38 | 1011.3 |
| 20260505173923 | 10 | 189 | 4.8 | 11.3 | 0.00 | 0.00 | 0.00 | 37 | 1011.1 |
| 20260505173420 | 10 | 158 | 3.2 | 8.0 | 0.00 | 0.00 | 0.00 | 39 | 1011.0 |
| 20260505172917 | 10 | 13 | 4.8 | 4.8 | 0.00 | 0.00 | 0.00 | 39 | 1011.2 |
| 20260505172415 | 9 | 205 | 3.2 | 4.8 | 0.00 | 0.00 | 0.00 | 42 | 1011.3 |
| 20260505171914 | 10 | 7 | 3.2 | 4.8 | 0.00 | 0.00 | 0.00 | 38 | 1011.3 |
| 20260505171411 | 10 | 92 | 6.4 | 11.3 | 0.00 | 0.00 | 0.00 | 39 | 1011.2 |
| 20260505170908 | 10 | 206 | 1.6 | 4.8 | 0.00 | 0.00 | 0.00 | 39 | 1011.4 |
| 20260505170405 | 9 | 350 | 8.0 | 11.3 | 0.00 | 0.00 | 0.00 | 40 | 1011.2 |
| 20260505165900 | 8 | 193 | 3.2 | 3.2 | 0.00 | 0.00 | 0.00 | 40 | 1011.3 |
| 20260505165356 | 9 | 187 | 6.4 | 8.0 | 0.00 | 0.00 | 0.00 | 39 | 1011.3 |
| 20260505164852 | 10 | 311 | 14.5 | 19.3 | 0.00 | 0.00 | 0.00 | 36 | 1011.4 |
| 20260505164348 | 10 | 196 | 6.4 | 8.0 | 0.00 | 0.00 | 0.00 | 36 | 1011.3 |
| 20260505163847 | 10 | 196 | 3.2 | 3.2 | 0.00 | 0.00 | 0.00 | 37 | 1011.5 |
| 20260505163346 | 10 | 191 | 4.8 | 8.0 | 0.00 | 0.00 | 0.00 | 39 | 1011.2 |
| 20260505162844 | 10 | 173 | 1.6 | 3.2 | 0.00 | 0.00 | 0.00 | 39 | 1011.3 |
| 20260505162339 | 10 | 263 | 4.8 | 14.5 | 0.00 | 0.00 | 0.00 | 37 | 1011.3 |
| 20260505161837 | 8 | 289 | 6.4 | 8.0 | 0.00 | 0.00 | 0.00 | 39 | 1011.4 |
| 20260505161333 | 8 | 271 | 9.7 | 14.5 | 0.00 | 0.00 | 0.00 | 40 | 1011.1 |
| 20260505160831 | 9 | 225 | 3.2 | 4.8 | 0.00 | 0.00 | 0.00 | 37 | 1011.2 |
| 20260505160329 | 9 | 69 | 4.8 | 8.0 | 0.00 | 0.00 | 0.00 | 38 | 1011.2 |
| 20260505153308 | 8 | 46 | 9.7 | 14.5 | 0.00 | 0.00 | 0.00 | 40 | 1011.2 |
| 20260505152805 | 8 | 27 | 4.8 | 4.8 | 0.00 | 0.00 | 0.00 | 40 | 1011.4 |
| 20260505152304 | 8 | 91 | 3.2 | 4.8 | 0.00 | 0.00 | 0.00 | 40 | 1011.4 |
| 20260505151755 | 9 | 331 | 4.8 | 8.0 | 0.00 | 0.00 | 0.00 | 40 | 1011.1 |
| 20260505151253 | 8 | 210 | 8.0 | 11.3 | 0.00 | 0.00 | 0.00 | 42 | 1011.2 |
| 20260505150750 | 8 | 347 | 8.0 | 11.3 | 0.00 | 0.00 | 0.00 | 40 | 1011.3 |
| 20260505150247 | 8 | 234 | 3.2 | 4.8 | 0.00 | 0.00 | 0.00 | 45 | 1011.2 |
| 20260505140212 | 6 | 20 | 4.8 | 8.0 | 0.00 | 0.00 | 0.00 | 44 | 1010.7 |
| 20260505130136 | 4 | 247 | 3.2 | 3.2 | 0.00 | 0.00 | 0.00 | 47 | 1010.4 |
| 20260505124625 | 4 | 179 | 3.2 | 4.8 | 0.00 | 0.00 | 0.00 | 49 | 1010.1 |
| 20260505124121 | 4 | 14 | 8.0 | 14.5 | 0.00 | 0.00 | 0.00 | 49 | 1010.0 |
| 20260505123617 | 4 | 166 | 8.0 | 11.3 | 0.00 | 0.00 | 0.00 | 51 | 1010.1 |
| 20260505123114 | 4 | 60 | 6.4 | 8.0 | 0.00 | 0.00 | 0.00 | 52 | 1009.9 |
| 20260505122611 | 4 | 14 | 12.9 | 19.3 | 0.00 | 0.00 | 0.00 | 51 | 1009.8 |
| 20260505122108 | 3 | 48 | 9.7 | 16.1 | 0.00 | 0.00 | 0.00 | 54 | 1009.7 |
| 20260505121604 | 3 | 163 | 1.6 | 3.2 | 0.00 | 0.00 | 0.00 | 54 | 1009.6 |
| 20260505121101 | 3 | 17 | 3.2 | 4.8 | 0.00 | 0.00 | 0.00 | 54 | 1009.6 |
| 20260505120557 | 3 | 193 | 1.6 | 3.2 | 0.00 | 0.00 | 0.00 | 56 | 1009.6 |
| 20260505120053 | 3 | 268 | 3.2 | 8.0 | 0.00 | 0.00 | 0.00 | 57 | 1009.4 |
| 20260505115547 | 3 | 185 | 1.6 | 3.2 | 0.00 | 0.00 | 0.00 | 58 | 1009.2 |
| 20260505115045 | 3 | 168 | 1.6 | 4.8 | 0.00 | 0.00 | 0.00 | 58 | 1009.3 |
| 20260505114542 | 3 | 211 | 1.6 | 3.2 | 0.00 | 0.00 | 0.00 | 60 | 1009.0 |
| 20260505114038 | 3 | 291 | 8.0 | 11.3 | 0.00 | 0.00 | 0.00 | 61 | 1008.9 |
| 20260505113535 | 3 | 165 | 0.0 | 0.0 | 0.00 | 0.00 | 0.00 | 61 | 1009.0 |
| 20260505113032 | 3 | 171 | 0.0 | 0.0 | 0.00 | 0.00 | 0.00 | 62 | 1009.0 |
| 20260505112528 | 3 | 200 | 3.2 | 8.0 | 0.00 | 0.00 | 0.00 | 62 | 1008.7 |
| 20260505112027 | 3 | 187 | 0.0 | 0.0 | 0.00 | 0.00 | 0.00 | 63 | 1008.8 |
| 20260505111525 | 3 | 231 | 3.2 | 3.2 | 0.00 | 0.00 | 0.00 | 64 | 1008.6 |
| 20260505111022 | 3 | 182 | 3.2 | 3.2 | 0.00 | 0.00 | 0.00 | 64 | 1008.7 |
| 20260505110519 | 3 | 199 | 3.2 | 3.2 | 0.00 | 0.00 | 0.00 | 64 | 1008.6 |
| 20260505101951 | 3 | 296 | 4.8 | 8.0 | 0.00 | 0.00 | 0.00 | 63 | 1008.5 |
| 20260505101449 | 3 | 321 | 3.2 | 3.2 | 0.00 | 0.00 | 0.00 | 63 | 1008.4 |
| 20260505100945 | 3 | 173 | 0.0 | 0.0 | 0.00 | 0.00 | 0.00 | 63 | 1008.4 |
| 20260505100443 | 3 | 158 | 0.0 | 0.0 | 0.00 | 0.00 | 0.00 | 63 | 1008.3 |
| 20260505095939 | 3 | 188 | 4.8 | 8.0 | 0.00 | 0.00 | 0.00 | 62 | 1008.3 |
| 20260505095436 | 3 | 219 | 0.0 | 0.0 | 0.00 | 0.00 | 0.00 | 62 | 1008.3 |
| 20260505094932 | 3 | 269 | 3.2 | 4.8 | 0.00 | 0.00 | 0.00 | 62 | 1008.2 |
| 20260505094429 | 4 | 157 | 0.0 | 0.0 | 0.00 | 0.00 | 0.00 | 62 | 1008.1 |
| 20260505093925 | 4 | 193 | 1.6 | 3.2 | 0.00 | 0.00 | 0.00 | 61 | 1008.3 |
| 20260505093422 | 4 | 284 | 1.6 | 3.2 | 0.00 | 0.00 | 0.00 | 61 | 1008.2 |
| 20260505092919 | 4 | 194 | 1.6 | 3.2 | 0.00 | 0.00 | 0.00 | 61 | 1008.0 |
| 20260505092417 | 4 | 242 | 1.6 | 3.2 | 0.00 | 0.00 | 0.00 | 60 | 1008.2 |
| 20260505091914 | 4 | 140 | 4.8 | 4.8 | 0.00 | 0.00 | 0.00 | 60 | 1007.9 |
| 20260505091412 | 4 | 325 | 6.4 | 8.0 | 0.00 | 0.00 | 0.00 | 60 | 1008.0 |
| 20260505090909 | 4 | 170 | 0.0 | 0.0 | 0.00 | 0.00 | 0.00 | 60 | 1007.8 |
| 20260505090408 | 4 | 184 | 1.6 | 3.2 | 0.00 | 0.00 | 0.00 | 60 | 1007.9 |
| 20260505085904 | 4 | 223 | 0.0 | 3.2 | 0.00 | 0.00 | 0.00 | 59 | 1007.9 |
| 20260505085402 | 4 | 168 | 3.2 | 4.8 | 0.00 | 0.00 | 0.00 | 58 | 1007.8 |
| 20260505084900 | 4 | 242 | 1.6 | 3.2 | 0.00 | 0.00 | 0.00 | 58 | 1007.8 |
| 20260505084358 | 4 | 164 | 0.0 | 0.0 | 0.00 | 0.00 | 0.00 | 58 | 1007.6 |
| 20260505083856 | 4 | 290 | 4.8 | 8.0 | 0.00 | 0.00 | 0.00 | 58 | 1007.5 |
| 20260505083353 | 5 | 177 | 0.0 | 0.0 | 0.00 | 0.00 | 0.00 | 57 | 1007.6 |
| 20260505082849 | 5 | 320 | 6.4 | 8.0 | 0.00 | 0.00 | 0.00 | 56 | 1007.4 |
| 20260505082345 | 5 | 139 | 3.2 | 4.8 | 0.00 | 0.00 | 0.00 | 56 | 1007.4 |
| 20260505081842 | 5 | 128 | 3.2 | 3.2 | 0.00 | 0.00 | 0.00 | 56 | 1007.4 |
| 20260505081339 | 5 | 173 | 3.2 | 3.2 | 0.00 | 0.00 | 0.00 | 56 | 1007.3 |
| 20260505080836 | 5 | 196 | 1.6 | 3.2 | 0.00 | 0.00 | 0.00 | 56 | 1007.3 |
| 20260505080331 | 5 | 190 | 3.2 | 3.2 | 0.00 | 0.00 | 0.00 | 56 | 1007.0 |
| 20260505075827 | 5 | 166 | 3.2 | 4.8 | 0.00 | 0.00 | 0.00 | 56 | 1007.1 |
| 20260505075324 | 5 | 212 | 3.2 | 4.8 | 0.00 | 0.00 | 0.00 | 56 | 1007.0 |
| 20260505074822 | 5 | 208 | 3.2 | 3.2 | 0.00 | 0.00 | 0.00 | 56 | 1006.9 |
| 20260505074319 | 5 | 198 | 1.6 | 3.2 | 0.00 | 0.00 | 0.00 | 55 | 1007.2 |
| 20260505073816 | 5 | 248 | 3.2 | 8.0 | 0.00 | 0.00 | 0.00 | 54 | 1007.1 |
| 20260505073314 | 5 | 304 | 3.2 | 4.8 | 0.00 | 0.00 | 0.00 | 54 | 1007.2 |
| 20260505072811 | 5 | 233 | 3.2 | 4.8 | 0.00 | 0.00 | 0.00 | 54 | 1007.0 |
| 20260505072307 | 5 | 171 | 1.6 | 3.2 | 0.00 | 0.00 | 0.00 | 55 | 1007.1 |
| 20260505071802 | 5 | 175 | 0.0 | 0.0 | 0.00 | 0.00 | 0.00 | 55 | 1007.2 |
| 20260505071259 | 5 | 226 | 3.2 | 3.2 | 0.00 | 0.00 | 0.00 | 54 | 1007.1 |
| 20260505070757 | 5 | 244 | 1.6 | 3.2 | 0.00 | 0.00 | 0.00 | 54 | 1007.2 |
| 20260505070254 | 5 | 121 | 3.2 | 3.2 | 0.00 | 0.00 | 0.00 | 54 | 1007.2 |
| 20260505065748 | 5 | 175 | 0.0 | 0.0 | 0.00 | 0.00 | 0.00 | 54 | 1007.2 |
| 20260505065246 | 5 | 185 | 3.2 | 4.8 | 0.00 | 0.00 | 0.00 | 54 | 1007.3 |
| 20260505064743 | 5 | 210 | 6.4 | 8.0 | 0.00 | 0.00 | 0.00 | 54 | 1007.3 |
| 20260505064240 | 6 | 176 | 3.2 | 4.8 | 0.00 | 0.00 | 0.00 | 54 | 1007.1 |
| 20260505063738 | 6 | 173 | 0.0 | 0.0 | 0.00 | 0.00 | 0.00 | 55 | 1007.0 |
| 20260505063234 | 6 | 277 | 6.4 | 8.0 | 0.00 | 0.00 | 0.00 | 54 | 1007.1 |
| 20260505062730 | 6 | 245 | 3.2 | 4.8 | 0.00 | 0.00 | 0.00 | 54 | 1007.3 |
| 20260505062228 | 6 | 259 | 0.0 | 3.2 | 0.00 | 0.00 | 0.00 | 55 | 1007.2 |
| 20260505061725 | 6 | 321 | 4.8 | 8.0 | 0.00 | 0.00 | 0.00 | 55 | 1007.2 |
| 20260505061223 | 6 | 194 | 1.6 | 3.2 | 0.00 | 0.00 | 0.00 | 55 | 1007.2 |
| 20260505060720 | 6 | 3 | 3.2 | 4.8 | 0.00 | 0.00 | 0.00 | 55 | 1007.3 |
| 20260505060217 | 6 | 152 | 4.8 | 8.0 | 0.00 | 0.00 | 0.00 | 55 | 1007.3 |
| 20260505055712 | 6 | 89 | 0.0 | 3.2 | 0.00 | 0.00 | 0.00 | 56 | 1007.3 |
| 20260505055209 | 5 | 183 | 0.0 | 0.0 | 0.00 | 0.00 | 0.00 | 57 | 1007.2 |
| 20260505054706 | 5 | 164 | 1.6 | 3.2 | 0.00 | 0.00 | 0.00 | 58 | 1006.9 |
| 20260505054204 | 5 | 170 | 0.0 | 0.0 | 0.00 | 0.00 | 0.00 | 57 | 1007.1 |
| 20260505053702 | 6 | 171 | 0.0 | 0.0 | 0.00 | 0.00 | 0.00 | 56 | 1006.9 |
| 20260505053158 | 6 | 172 | 0.0 | 0.0 | 0.00 | 0.00 | 0.00 | 56 | 1007.0 |
| 20260505052655 | 6 | 243 | 3.2 | 3.2 | 0.00 | 0.00 | 0.00 | 56 | 1007.0 |
| 20260505052152 | 6 | 291 | 3.2 | 4.8 | 0.00 | 0.00 | 0.00 | 56 | 1006.9 |
| 20260505051649 | 6 | 233 | 0.0 | 0.0 | 0.00 | 0.00 | 0.00 | 57 | 1006.8 |
| 20260505051147 | 6 | 178 | 0.0 | 0.0 | 0.00 | 0.00 | 0.00 | 56 | 1006.9 |
| 20260505050645 | 6 | 174 | 0.0 | 0.0 | 0.00 | 0.00 | 0.00 | 55 | 1006.7 |
| 20260505050143 | 6 | 184 | 0.0 | 0.0 | 0.00 | 0.00 | 0.00 | 55 | 1007.0 |
| 20260505041612 | 6 | 170 | 0.0 | 0.0 | 0.00 | 0.00 | 0.00 | 55 | 1006.7 |
| 20260505041110 | 6 | 139 | 0.0 | 0.0 | 0.00 | 0.00 | 0.00 | 55 | 1006.6 |
| 20260505040607 | 6 | 173 | 0.0 | 0.0 | 0.00 | 0.00 | 0.00 | 54 | 1006.6 |
| 20260505040104 | 6 | 173 | 0.0 | 0.0 | 0.00 | 0.00 | 0.00 | 54 | 1006.6 |
| 20260505035600 | 6 | 168 | 0.0 | 0.0 | 0.00 | 0.00 | 0.00 | 53 | 1006.7 |
| 20260505035057 | 6 | 179 | 0.0 | 0.0 | 0.00 | 0.00 | 0.00 | 52 | 1006.7 |
| 20260505034553 | 6 | 174 | 0.0 | 0.0 | 0.00 | 0.00 | 0.00 | 52 | 1006.5 |
| 20260505034050 | 7 | 171 | 0.0 | 0.0 | 0.00 | 0.00 | 0.00 | 51 | 1006.5 |
| 20260505033547 | 7 | 178 | 0.0 | 0.0 | 0.00 | 0.00 | 0.00 | 51 | 1006.4 |
| 20260505033045 | 6 | 150 | 0.0 | 0.0 | 0.00 | 0.00 | 0.00 | 50 | 1006.5 |
| 20260505032543 | 7 | 161 | 0.0 | 0.0 | 0.00 | 0.00 | 0.00 | 51 | 1006.6 |
| 20260505032039 | 7 | 175 | 0.0 | 0.0 | 0.00 | 0.00 | 0.00 | 50 | 1006.5 |
| 20260505031537 | 7 | 147 | 1.6 | 4.8 | 0.00 | 0.00 | 0.00 | 50 | 1006.7 |
| 20260505031033 | 7 | 215 | 1.6 | 3.2 | 0.00 | 0.00 | 0.00 | 50 | 1006.5 |
| 20260505030530 | 7 | 168 | 0.0 | 0.0 | 0.00 | 0.00 | 0.00 | 50 | 1006.6 |
| 20260505030026 | 7 | 166 | 0.0 | 0.0 | 0.00 | 0.00 | 0.00 | 49 | 1006.4 |
| 20260505025522 | 7 | 164 | 0.0 | 0.0 | 0.00 | 0.00 | 0.00 | 49 | 1006.4 |
| 20260505025021 | 7 | 181 | 0.0 | 0.0 | 0.00 | 0.00 | 0.00 | 49 | 1006.5 |
| 20260505024518 | 7 | 158 | 0.0 | 0.0 | 0.00 | 0.00 | 0.00 | 49 | 1006.5 |
| 20260505024015 | 7 | 154 | 0.0 | 0.0 | 0.00 | 0.00 | 0.00 | 48 | 1006.3 |
| 20260505023511 | 7 | 155 | 0.0 | 3.2 | 0.00 | 0.00 | 0.00 | 48 | 1006.3 |
| 20260505023009 | 7 | 173 | 0.0 | 0.0 | 0.00 | 0.00 | 0.00 | 48 | 1006.3 |
| 20260505022507 | 7 | 161 | 0.0 | 0.0 | 0.00 | 0.00 | 0.00 | 48 | 1006.2 |
| 20260505022004 | 7 | 168 | 0.0 | 0.0 | 0.00 | 0.00 | 0.00 | 46 | 1006.0 |
| 20260505021500 | 8 | 224 | 3.2 | 3.2 | 0.00 | 0.00 | 0.00 | 46 | 1005.9 |
| 20260505020955 | 8 | 170 | 1.6 | 3.2 | 0.00 | 0.00 | 0.00 | 45 | 1005.8 |
| 20260505020451 | 8 | 179 | 0.0 | 0.0 | 0.00 | 0.00 | 0.00 | 45 | 1005.8 |
| 20260505015948 | 8 | 195 | 1.6 | 3.2 | 0.00 | 0.00 | 0.00 | 44 | 1005.7 |
| 20260505015446 | 8 | 160 | 0.0 | 3.2 | 0.00 | 0.00 | 0.00 | 43 | 1005.8 |
| 20260505014942 | 8 | 254 | 3.2 | 4.8 | 0.00 | 0.00 | 0.00 | 43 | 1005.6 |
| 20260505014439 | 8 | 352 | 3.2 | 8.0 | 0.00 | 0.00 | 0.00 | 42 | 1005.8 |
| 20260505013937 | 9 | 338 | 11.3 | 16.1 | 0.00 | 0.00 | 0.00 | 42 | 1005.7 |
| 20260505013434 | 9 | 39 | 16.1 | 19.3 | 0.00 | 0.00 | 0.00 | 42 | 1005.7 |
| 20260505012931 | 9 | 220 | 9.7 | 16.1 | 0.00 | 0.00 | 0.00 | 42 | 1005.6 |
| 20260505012429 | 9 | 157 | 1.6 | 3.2 | 0.00 | 0.00 | 0.00 | 44 | 1005.5 |
| 20260505011925 | 9 | 332 | 4.8 | 8.0 | 0.00 | 0.00 | 0.00 | 43 | 1005.4 |
| 20260505011421 | 10 | 201 | 1.6 | 3.2 | 0.00 | 0.00 | 0.00 | 43 | 1005.3 |
| 20260505010918 | 10 | 204 | 9.7 | 14.5 | 0.00 | 0.00 | 0.00 | 43 | 1005.2 |
| 20260505010414 | 10 | 239 | 11.3 | 22.5 | 0.00 | 0.00 | 0.00 | 42 | 1004.9 |
| 20260505005910 | 10 | 319 | 9.7 | 14.5 | 0.00 | 0.00 | 0.00 | 42 | 1005.2 |
| 20260505005407 | 10 | 349 | 4.8 | 4.8 | 0.00 | 0.00 | 0.00 | 42 | 1004.6 |
| 20260505004905 | 10 | 196 | 9.7 | 19.3 | 0.00 | 0.00 | 0.00 | 41 | 1004.7 |
| 20260505004401 | 10 | 231 | 9.7 | 11.3 | 0.00 | 0.00 | 0.00 | 42 | 1004.6 |
| 20260505003858 | 10 | 31 | 12.9 | 19.3 | 0.00 | 0.00 | 0.00 | 41 | 1004.6 |
| 20260505003355 | 11 | 294 | 8.0 | 14.5 | 0.00 | 0.00 | 0.00 | 41 | 1004.4 |
| 20260505002852 | 11 | 193 | 3.2 | 4.8 | 0.00 | 0.00 | 0.00 | 41 | 1004.5 |
| 20260505002348 | 11 | 246 | 6.4 | 11.3 | 0.00 | 0.00 | 0.00 | 40 | 1004.4 |
| 20260505001847 | 11 | 327 | 6.4 | 8.0 | 0.00 | 0.00 | 0.00 | 39 | 1004.3 |
| 20260505001344 | 11 | 154 | 14.5 | 22.5 | 0.00 | 0.00 | 0.00 | 39 | 1004.0 |
| 20260505000841 | 11 | 257 | 6.4 | 8.0 | 0.00 | 0.00 | 0.00 | 39 | 1004.1 |
| 20260505000338 | 11 | 304 | 3.2 | 4.8 | 0.00 | 0.00 | 0.00 | 40 | 1004.1 |
| 20260504235835 | 11 | 41 | 3.2 | 4.8 | 0.00 | 0.00 | 0.00 | 40 | 1004.0 |
| 20260504235332 | 11 | 341 | 11.3 | 19.3 | 0.00 | 0.00 | 0.00 | 39 | 1004.0 |
| 20260504234828 | 11 | 37 | 11.3 | 14.5 | 0.00 | 0.00 | 0.00 | 39 | 1003.7 |
| 20260504234326 | 12 | 274 | 16.1 | 22.5 | 0.00 | 0.00 | 0.00 | 38 | 1003.8 |
| 20260504233822 | 12 | 334 | 9.7 | 14.5 | 0.00 | 0.00 | 0.00 | 39 | 1003.8 |
| 20260504233318 | 12 | 227 | 0.0 | 3.2 | 0.00 | 0.00 | 0.00 | 39 | 1003.6 |
| 20260504232815 | 12 | 348 | 3.2 | 4.8 | 0.00 | 0.00 | 0.00 | 38 | 1003.6 |
| 20260504232312 | 12 | 194 | 4.8 | 4.8 | 0.00 | 0.00 | 0.00 | 38 | 1003.4 |
| 20260504231809 | 12 | 290 | 6.4 | 8.0 | 0.00 | 0.00 | 0.00 | 39 | 1003.5 |
| 20260504231306 | 12 | 132 | 11.3 | 16.1 | 0.00 | 0.00 | 0.00 | 39 | 1003.5 |
| 20260504230802 | 12 | 229 | 4.8 | 8.0 | 0.00 | 0.00 | 0.00 | 40 | 1003.5 |
| 20260504230300 | 12 | 335 | 9.7 | 14.5 | 0.00 | 0.00 | 0.00 | 39 | 1003.4 |
| 20260504225758 | 12 | 145 | 3.2 | 3.2 | 0.00 | 0.00 | 0.00 | 40 | 1003.5 |
| 20260504225254 | 12 | 236 | 3.2 | 3.2 | 0.00 | 0.00 | 0.00 | 40 | 1003.4 |
| 20260504224752 | 12 | 223 | 14.5 | 19.3 | 0.00 | 0.00 | 0.00 | 39 | 1003.4 |
| 20260504224249 | 13 | 289 | 8.0 | 11.3 | 0.00 | 0.00 | 0.00 | 39 | 1003.1 |
| 20260504223745 | 13 | 232 | 11.3 | 19.3 | 0.00 | 0.00 | 0.00 | 39 | 1003.0 |
| 20260504223241 | 13 | 350 | 6.4 | 11.3 | 0.00 | 0.00 | 0.00 | 40 | 1002.9 |
| 20260504222738 | 13 | 76 | 6.4 | 8.0 | 0.00 | 0.00 | 0.00 | 40 | 1002.7 |
| 20260504222234 | 13 | 353 | 8.0 | 11.3 | 0.00 | 0.00 | 0.00 | 40 | 1002.7 |
| 20260504221732 | 14 | 347 | 9.7 | 14.5 | 0.00 | 0.00 | 0.00 | 38 | 1002.7 |
| 20260504221229 | 14 | 282 | 6.4 | 11.3 | 0.00 | 0.00 | 0.00 | 40 | 1002.3 |
| 20260504220725 | 15 | 282 | 14.5 | 22.5 | 0.00 | 0.00 | 0.00 | 38 | 1002.5 |
| 20260504220223 | 14 | 236 | 3.2 | 4.8 | 0.00 | 0.00 | 0.00 | 40 | 1002.4 |
| 20260504215720 | 14 | 31 | 3.2 | 8.0 | 0.00 | 0.00 | 0.00 | 40 | 1002.3 |
| 20260504215217 | 15 | 329 | 14.5 | 19.3 | 0.00 | 0.00 | 0.00 | 37 | 1002.1 |
| 20260504214712 | 15 | 314 | 6.4 | 8.0 | 0.00 | 0.00 | 0.00 | 38 | 1002.2 |
| 20260504214209 | 14 | 336 | 11.3 | 19.3 | 0.00 | 0.00 | 0.00 | 39 | 1001.9 |
| 20260504213706 | 13 | 143 | 6.4 | 8.0 | 0.00 | 0.00 | 0.00 | 39 | 1001.8 |
| 20260504213202 | 14 | 71 | 9.7 | 16.1 | 0.00 | 0.00 | 0.00 | 39 | 1001.7 |
| 20260504212659 | 14 | 22 | 9.7 | 19.3 | 0.00 | 0.00 | 0.00 | 38 | 1001.7 |
| 20260504212156 | 16 | 187 | 11.3 | 22.5 | 0.00 | 0.00 | 0.00 | 36 | 1001.8 |
| 20260504211653 | 16 | 252 | 11.3 | 22.5 | 0.00 | 0.00 | 0.00 | 37 | 1001.6 |
| 20260504211149 | 16 | 343 | 9.7 | 30.6 | 0.00 | 0.00 | 0.00 | 36 | 1001.7 |
| 20260504210647 | 15 | 204 | 4.8 | 4.8 | 0.00 | 0.00 | 0.00 | 37 | 1001.7 |
| 20260504210143 | 15 | 0 | 14.5 | 19.3 | 0.00 | 0.00 | 0.00 | 37 | 1001.6 |
| 20260504205641 | 16 | 233 | 3.2 | 3.2 | 0.00 | 0.00 | 0.00 | 38 | 1001.5 |
| 20260504205138 | 16 | 283 | 8.0 | 14.5 | 0.00 | 0.00 | 0.00 | 36 | 1001.7 |
| 20260504204637 | 16 | 275 | 17.7 | 27.4 | 0.00 | 0.00 | 0.00 | 37 | 1001.4 |
| 20260504204135 | 16 | 311 | 11.3 | 22.5 | 0.00 | 0.00 | 0.00 | 37 | 1001.6 |
| 20260504203634 | 16 | 196 | 4.8 | 8.0 | 0.00 | 0.00 | 0.00 | 37 | 1001.5 |
| 20260504203131 | 17 | 300 | 14.5 | 19.3 | 0.00 | 0.00 | 0.00 | 36 | 1001.3 |
| 20260504202631 | 17 | 65 | 6.4 | 8.0 | 0.00 | 0.00 | 0.00 | 36 | 1001.3 |
| 20260504202128 | 17 | 91 | 12.9 | 19.3 | 0.00 | 0.00 | 0.00 | 35 | 1001.1 |
| 20260504201625 | 17 | 289 | 8.0 | 11.3 | 0.00 | 0.00 | 0.00 | 36 | 1001.0 |
| 20260504201123 | 17 | 312 | 9.7 | 16.1 | 0.00 | 0.00 | 0.00 | 36 | 1001.0 |
| 20260504200620 | 17 | 301 | 8.0 | 11.3 | 0.00 | 0.00 | 0.00 | 38 | 1001.0 |
| 20260504200116 | 17 | 31 | 4.8 | 8.0 | 0.00 | 0.00 | 0.00 | 37 | 1000.8 |
| 20260504195612 | 16 | 106 | 9.7 | 14.5 | 0.00 | 0.00 | 0.00 | 37 | 1000.9 |
| 20260504195108 | 16 | 278 | 8.0 | 14.5 | 0.00 | 0.00 | 0.00 | 38 | 1000.7 |
| 20260504194605 | 17 | 18 | 9.7 | 14.5 | 0.00 | 0.00 | 0.00 | 38 | 1000.9 |
| 20260504194101 | 17 | 66 | 4.8 | 4.8 | 0.00 | 0.00 | 0.00 | 38 | 1000.8 |
| 20260504193558 | 16 | 150 | 6.4 | 11.3 | 0.00 | 0.00 | 0.00 | 40 | 1000.7 |
| 20260504193056 | 16 | 344 | 12.9 | 19.3 | 0.00 | 0.00 | 0.00 | 38 | 1000.7 |
| 20260504192554 | 16 | 290 | 9.7 | 22.5 | 0.00 | 0.00 | 0.00 | 39 | 1000.6 |
| 20260504192052 | 17 | 334 | 11.3 | 19.3 | 0.00 | 0.00 | 0.00 | 38 | 1000.4 |
| 20260504191550 | 17 | 292 | 9.7 | 11.3 | 0.00 | 0.00 | 0.00 | 39 | 1000.6 |
| 20260504191046 | 17 | 327 | 8.0 | 11.3 | 0.00 | 0.00 | 0.00 | 38 | 1000.3 |
| 20260504190542 | 16 | 141 | 6.4 | 8.0 | 0.00 | 0.00 | 0.00 | 41 | 1000.2 |
| 20260504190038 | 16 | 312 | 12.9 | 24.1 | 0.00 | 0.00 | 0.00 | 38 | 1000.4 |
| 20260504185536 | 16 | 39 | 8.0 | 16.1 | 0.00 | 0.00 | 0.00 | 39 | 1000.4 |
| 20260504185032 | 16 | 240 | 11.3 | 16.1 | 0.00 | 0.00 | 0.00 | 37 | 1000.2 |